FW8759 Weather Reports


time (UTC)temp
C
wind
direction
speed
KPH
gust
KPH
rain 1hr
cm
rain 24hr
cm
rain mn
cm
humidity
%
barometer
mb
20260906112013 20 220 0.0 0.0 0.00 0.00 0.00 99 1010.6
20260906111512 20 220 0.0 0.0 0.00 0.00 0.00 99 1010.4
20260906111008 20 220 0.0 0.0 0.00 0.00 0.00 99 1010.6
20260906110503 20 220 0.0 0.0 0.00 0.00 0.00 99 1010.6
20260906110001 20 220 0.0 0.0 0.00 0.00 0.00 99 1010.5
20260906105457 20 220 0.0 0.0 0.00 0.00 0.00 99 1010.5
20260906104953 20 220 0.0 0.0 0.00 0.00 0.00 99 1010.3
20260906104452 20 220 0.0 0.0 0.00 0.00 0.00 99 1010.4
20260906103951 20 220 0.0 0.0 0.00 0.00 0.00 99 1010.3
20260906103449 20 220 0.0 0.0 0.00 0.00 0.00 99 1010.3
20260906102945 20 220 0.0 0.0 0.00 0.00 0.00 99 1010.2
20260906102444 20 220 0.0 0.0 0.00 0.00 0.00 99 1010.1
20260906101939 20 220 0.0 0.0 0.00 0.00 0.00 99 1010.3
20260906101434 20 220 0.0 0.0 0.00 0.00 0.00 99 1010.3
20260906100929 20 220 0.0 0.0 0.00 0.00 0.00 99 1010.2
20260906100424 20 219 0.0 0.0 0.00 0.00 0.00 99 1010.1
20260906095918 20 220 0.0 0.0 0.00 0.00 0.00 99 1010.4
20260906095414 20 220 0.0 0.0 0.00 0.00 0.00 99 1010.5
20260906094913 20 219 0.0 0.0 0.00 0.00 0.00 99 1010.3
20260906094403 20 219 0.0 0.0 0.00 0.00 0.00 99 1010.2
20260906093859 20 219 0.0 0.0 0.00 0.00 0.00 99 1010.3
20260906093355 20 218 0.0 0.0 0.00 0.00 0.00 99 1010.0
20260906092855 20 218 0.0 0.0 0.00 0.00 0.00 99 1010.2
20260906092355 20 218 0.0 0.0 0.00 0.00 0.00 99 1010.4
20260906091850 20 218 0.0 0.0 0.00 0.00 0.00 99 1010.5
20260906091346 20 218 0.0 0.0 0.00 0.00 0.00 99 1010.5
20260906090843 20 218 0.0 0.0 0.00 0.00 0.00 99 1010.4
20260906090342 20 217 0.0 0.0 0.00 0.00 0.00 99 1010.4
20260906085836 20 218 0.0 0.0 0.00 0.00 0.00 99 1010.3
20260906085330 20 218 0.0 0.0 0.00 0.00 0.00 99 1010.3
20260906084825 20 218 0.0 0.0 0.00 0.00 0.00 99 1010.1
20260906084325 20 219 0.0 0.0 0.00 0.00 0.00 99 1010.3
20260906083819 20 219 0.0 0.0 0.00 0.00 0.00 99 1010.0
20260906083314 21 220 0.0 0.0 0.00 0.00 0.00 99 1010.2
20260906082809 21 219 0.0 0.0 0.00 0.00 0.00 99 1010.3
20260906082306 20 220 0.0 0.0 0.00 0.00 0.00 99 1010.1
20260906081800 20 220 0.0 0.0 0.00 0.00 0.00 99 1010.0
20260906081256 20 220 0.0 0.0 0.00 0.00 0.00 99 1010.1
20260906080752 20 220 0.0 0.0 0.00 0.00 0.00 99 1010.4
20260906080248 20 220 0.0 0.0 0.00 0.00 0.00 99 1010.3
20260906075748 20 221 0.0 0.0 0.00 0.00 0.00 99 1010.1
20260906075247 20 221 0.0 0.0 0.00 0.00 0.00 99 1010.0
20260906074743 20 221 0.0 0.0 0.00 0.00 0.00 99 1010.2
20260906074242 20 222 0.0 0.0 0.00 0.00 0.00 99 1010.2
20260906073741 20 221 0.0 0.0 0.00 0.00 0.00 99 1010.1
20260906073237 20 219 0.0 0.0 0.00 0.00 0.00 99 1010.1
20260906072732 20 219 0.0 0.0 0.00 0.00 0.00 99 1010.2
20260906072228 20 219 0.0 0.0 0.00 0.00 0.00 99 1010.1
20260906071724 21 222 0.0 0.0 0.00 0.00 0.00 99 1010.4
20260906071224 20 222 0.0 0.0 0.00 0.00 0.00 99 1010.5
20260906070721 20 222 0.0 0.0 0.00 0.00 0.00 99 1010.5
20260906070216 20 222 0.0 0.0 0.00 0.00 0.00 99 1010.5
20260906065715 21 222 0.0 0.0 0.00 0.00 0.00 99 1010.4
20260906065211 21 222 0.0 0.0 0.00 0.00 0.00 99 1010.1
20260906064706 21 219 0.0 0.0 0.00 0.00 0.00 99 1010.3
20260906064201 21 216 0.0 0.0 0.00 0.00 0.00 99 1010.2
20260906063656 21 220 0.0 0.0 0.00 0.00 0.00 99 1010.2
20260906063152 21 218 0.0 0.0 0.00 0.00 0.00 99 1010.2
20260906062648 21 209 0.0 0.0 0.00 0.00 0.00 99 1010.4
20260906062146 21 211 0.0 0.0 0.00 0.00 0.00 99 1010.4
20260906061643 21 211 0.0 0.0 0.00 0.00 0.00 99 1010.6
20260906061143 21 212 0.0 0.0 0.00 0.00 0.00 99 1010.5
20260906060639 21 210 0.0 0.0 0.00 0.00 0.00 99 1010.4
20260906060136 21 210 0.0 0.0 0.00 0.00 0.00 99 1010.6
20260906055632 21 210 0.0 0.0 0.00 0.00 0.00 99 1010.7
20260906055127 21 215 0.0 0.0 0.00 0.00 0.00 99 1010.7
20260906054622 21 258 0.0 0.0 0.00 0.00 0.00 99 1010.8
20260906054117 21 259 0.0 0.0 0.00 0.00 0.00 99 1010.8
20260906053614 21 259 0.0 0.0 0.00 0.00 0.00 99 1011.0
20260906053108 21 257 0.0 0.0 0.00 0.00 0.00 99 1011.0
20260906052604 21 258 0.0 0.0 0.00 0.00 0.00 99 1010.9
20260906052101 21 264 0.0 0.0 0.00 0.00 0.00 99 1011.2
20260906051556 21 258 0.0 0.0 0.00 0.00 0.00 98 1011.1
20260906051051 21 257 0.0 0.0 0.00 0.00 0.00 98 1011.7
20260906050546 21 257 0.0 0.0 0.00 0.00 0.00 98 1011.4
20260906050042 21 258 0.0 0.0 0.00 0.00 0.00 98 1011.2
20260906045539 21 261 0.0 0.0 0.00 0.00 0.00 98 1011.2
20260906045036 21 264 0.0 0.0 0.00 0.00 0.00 99 1011.4
20260906044531 21 267 0.0 0.0 0.00 0.00 0.00 99 1011.4
20260906044026 21 278 0.0 0.0 0.00 0.00 0.00 98 1011.4
20260906043522 21 276 0.0 0.0 0.00 0.00 0.00 99 1011.5
20260906043018 21 276 0.0 0.0 0.00 0.00 0.00 98 1011.6
20260906042516 21 282 0.0 0.0 0.00 0.00 0.00 98 1011.5
20260906042011 22 288 0.0 0.0 0.00 0.00 0.00 98 1011.6
20260906041508 22 277 0.0 0.0 0.00 0.00 0.00 98 1011.4
20260906041007 22 277 0.0 0.0 0.00 0.00 0.00 97 1011.5
20260906040503 22 276 0.0 0.0 0.00 0.00 0.00 97 1011.7
20260906035957 22 276 0.0 0.0 0.00 0.00 0.00 97 1011.5
20260906035453 22 285 0.0 0.0 0.00 0.00 0.00 96 1011.3
20260906034948 22 287 0.0 0.0 0.00 0.00 0.00 96 1011.3
20260906034443 22 285 0.0 0.0 0.00 0.00 0.00 97 1011.5
20260906033938 22 277 0.0 0.0 0.00 0.00 0.00 97 1011.2
20260906033438 22 277 0.0 0.0 0.00 0.00 0.00 97 1011.4
20260906032934 22 277 0.0 0.0 0.00 0.00 0.00 97 1011.4
20260906032425 22 287 0.0 0.0 0.00 0.00 0.00 97 1011.5
20260906031919 22 283 0.0 0.0 0.00 0.00 0.00 97 1011.4
20260906031414 22 286 0.0 0.0 0.00 0.00 0.00 97 1011.3
20260906030909 22 277 0.0 0.0 0.00 0.00 0.00 97 1011.7
20260906030404 22 286 0.0 0.0 0.00 0.00 0.00 97 1011.4
20260906025859 22 285 0.0 0.0 0.00 0.00 0.00 97 1011.8
20260906025359 22 273 0.0 0.0 0.00 0.00 0.00 97 1011.7
20260906024857 22 282 0.0 0.0 0.00 0.00 0.00 97 1011.5
20260906024357 22 294 0.0 0.0 0.00 0.00 0.00 97 1011.4
20260906023852 22 287 0.0 0.0 0.00 0.00 0.00 96 1011.7
20260906023349 22 280 0.0 0.0 0.00 0.00 0.00 96 1011.5
20260906022848 22 290 0.0 0.0 0.00 0.00 0.00 96 1011.8
20260906022343 22 268 0.0 0.0 0.00 0.00 0.00 96 1011.7
20260906021839 22 270 0.0 0.0 0.00 0.00 0.00 96 1012.0
20260906021338 22 272 0.0 0.0 0.00 0.00 0.00 96 1011.6
20260906020834 22 282 0.0 0.0 0.00 0.00 0.00 95 1011.8
20260906020333 23 285 0.0 0.0 0.00 0.00 0.00 95 1011.5
20260906015828 23 281 0.0 0.0 0.00 0.00 0.00 94 1011.5
20260906015327 23 265 0.0 0.0 0.00 0.00 0.00 94 1011.3
20260906014826 23 264 0.0 0.0 0.00 0.00 0.00 93 1011.6
20260906014322 23 267 0.0 0.0 0.00 0.00 0.00 92 1011.6
20260906013818 23 268 0.0 0.0 0.00 0.00 0.00 93 1011.2
20260906013313 23 268 0.0 0.0 0.00 0.00 0.00 93 1011.5
20260906012808 23 271 0.0 0.0 0.00 0.00 0.00 93 1011.2
20260906012306 23 283 0.0 0.0 0.00 0.00 0.00 93 1011.1
20260906011758 23 267 0.0 0.0 0.00 0.00 0.00 93 1010.8
20260906011258 23 271 0.0 0.0 0.00 0.00 0.00 93 1010.9
20260906010754 23 284 0.0 0.0 0.00 0.00 0.00 93 1010.8
20260906010250 23 265 0.0 0.0 0.00 0.00 0.00 93 1010.6
20260906005745 23 265 0.0 0.0 0.00 0.00 0.00 93 1010.5
20260906005244 23 260 0.0 0.0 0.00 0.00 0.00 92 1010.5
20260906004743 23 260 0.0 0.0 0.00 0.00 0.00 92 1010.4
20260906004239 23 260 0.0 0.0 0.00 0.00 0.00 91 1010.6
20260906003739 23 276 0.0 0.0 0.00 0.00 0.00 91 1010.3
20260906003234 23 269 0.0 0.0 0.00 0.00 0.00 90 1010.1
20260906002729 24 272 0.0 0.0 0.00 0.00 0.00 90 1010.1
20260906002229 24 258 0.0 0.0 0.00 0.00 0.00 90 1010.0
20260906001724 24 258 0.0 0.0 0.00 0.00 0.00 89 1009.7
20260906001219 24 267 0.0 0.0 0.00 0.00 0.00 89 1010.1
20260906000714 24 272 0.0 0.0 0.00 0.00 0.00 89 1009.6
20260906000212 25 274 0.0 0.0 0.00 0.00 0.00 88 1009.6
20260905235709 25 268 0.0 0.0 0.00 0.00 0.00 88 1009.8
20260905235204 25 265 0.0 0.0 0.00 0.00 0.00 86 1009.9
20260905234659 25 265 0.0 0.0 0.00 0.00 0.00 86 1009.7
20260905234154 25 269 0.0 0.0 0.00 0.00 0.00 85 1009.8
20260905233650 25 258 0.0 0.0 0.00 0.00 0.00 85 1010.0
20260905233149 25 258 0.0 0.0 0.00 0.00 0.00 84 1010.1
20260905232644 25 272 0.0 0.0 0.00 0.00 0.00 84 1009.9
20260905232140 26 280 0.0 0.0 0.00 0.00 0.00 83 1010.0
20260905231635 26 272 0.0 0.0 0.00 0.00 0.00 83 1010.3
20260905231131 26 278 0.0 0.0 0.00 0.00 0.00 83 1010.3
20260905230627 26 272 0.0 0.0 0.00 0.00 0.00 83 1010.2
20260905230125 25 258 0.0 0.0 0.00 0.00 0.00 83 1010.3
20260905225624 25 267 0.0 0.0 0.00 0.00 0.00 83 1010.2
20260905225120 26 276 0.0 0.0 0.00 0.00 0.00 82 1010.2
20260905224619 26 272 0.0 0.0 0.00 0.00 0.00 82 1010.3
20260905224119 26 272 0.0 0.0 0.00 0.00 0.00 82 1010.5
20260905223616 26 272 0.0 0.0 0.00 0.00 0.00 81 1010.2
20260905223112 26 283 0.0 0.0 0.00 0.00 0.00 80 1009.8
20260905222612 26 276 0.0 0.0 0.00 0.00 0.00 79 1009.8
20260905222108 26 277 0.0 0.0 0.00 0.00 0.00 78 1010.2
20260905221603 26 236 0.0 0.0 0.00 0.00 0.00 78 1010.4
20260905221100 26 256 0.0 0.0 0.00 0.00 0.00 77 1010.5
20260905220555 26 259 0.0 0.0 0.00 0.00 0.00 76 1010.2
20260905220051 26 237 0.0 0.0 0.00 0.00 0.00 75 1010.0
20260905215550 26 259 0.0 0.0 0.00 0.00 0.00 74 1009.7
20260905215046 26 236 0.0 0.0 0.00 0.00 0.00 73 1009.9
20260905214542 26 258 0.0 0.0 0.00 0.00 0.00 72 1010.2
20260905214037 27 236 0.0 0.0 0.00 0.00 0.00 71 1010.4
20260905213532 27 262 0.0 0.0 0.00 0.00 0.00 68 1010.6
20260905213028 28 252 0.0 0.0 0.00 0.00 0.00 67 1010.7
20260905212522 30 281 0.0 0.0 0.00 0.00 0.00 64 1010.2
20260905212022 31 308 0.0 0.0 0.00 0.00 0.00 62 1010.2
20260905211517 32 319 0.0 0.0 0.00 0.00 0.00 61 1009.7
20260905211013 32 324 0.0 0.0 0.00 0.00 0.00 63 1009.7
20260905210509 33 340 0.0 0.0 0.00 0.00 0.00 61 1009.9
20260905210008 33 340 0.0 0.0 0.00 0.00 0.00 59 1009.2
20260905205503 33 330 0.0 0.0 0.00 0.00 0.00 57 1009.6
20260905205001 34 351 0.0 0.0 0.00 0.00 0.00 55 1009.5
20260905204457 34 341 0.0 0.0 0.00 0.00 0.00 54 1009.5
20260905203956 35 358 0.0 0.0 0.00 0.00 0.00 54 1009.3
20260905203452 34 318 0.0 0.0 0.00 0.00 0.00 54 1009.6
20260905202947 34 336 0.0 0.0 0.00 0.00 0.00 55 1009.5
20260905202442 33 341 0.0 0.0 0.00 0.00 0.00 56 1009.6
20260905201938 33 330 0.0 0.0 0.00 0.00 0.00 57 1009.7
20260905201433 33 331 0.0 0.0 0.00 0.00 0.00 57 1010.0
20260905200933 33 333 0.0 0.0 0.00 0.00 0.00 57 1009.8
20260905200429 35 330 0.0 0.0 0.00 0.00 0.00 53 1009.8
20260905195927 35 334 0.0 0.0 0.00 0.00 0.00 51 1009.6
20260905195422 35 332 0.0 0.0 0.00 0.00 0.00 51 1009.9
20260905194918 35 336 0.0 0.0 0.00 0.00 0.00 52 1010.0
20260905194412 35 339 0.0 0.0 0.00 0.00 0.00 53 1009.8
20260905193911 35 331 0.0 0.0 0.00 0.00 0.00 53 1009.9
20260905193406 35 330 0.0 0.0 0.00 0.00 0.00 55 1010.0
20260905192901 35 331 0.0 0.0 0.00 0.00 0.00 55 1009.9
20260905192357 36 321 0.0 0.0 0.00 0.00 0.00 53 1010.1
20260905191857 36 321 0.0 0.0 0.00 0.00 0.00 49 1010.4
20260905191356 35 321 0.0 0.0 0.00 0.00 0.00 51 1010.5
20260905190850 36 349 0.0 0.0 0.00 0.00 0.00 52 1010.3
20260905190348 36 298 0.0 0.0 0.00 0.00 0.00 52 1010.3
20260905185847 37 297 0.0 0.0 0.00 0.00 0.00 52 1010.2
20260905185343 37 321 0.0 0.0 0.00 0.00 0.00 51 1010.5
20260905184842 37 302 0.0 0.0 0.00 0.00 0.00 50 1010.4
20260905184341 37 302 0.0 0.0 0.00 0.00 0.00 52 1010.4
20260905183839 36 317 0.0 0.0 0.00 0.00 0.00 52 1010.4
20260905183335 36 317 0.0 0.0 0.00 0.00 0.00 53 1010.5
20260905182830 36 328 0.0 0.0 0.00 0.00 0.00 53 1010.4
20260905182329 36 322 0.0 0.0 0.00 0.00 0.00 50 1010.5
20260905181825 35 324 0.0 0.0 0.00 0.00 0.00 51 1010.7
20260905181324 35 332 0.0 0.0 0.00 0.00 0.00 53 1010.6
20260905180823 35 298 0.0 0.0 0.00 0.00 0.00 53 1011.1
20260905180319 35 297 0.0 0.0 0.00 0.00 0.00 54 1011.1
20260905175814 35 328 0.0 0.0 0.00 0.00 0.00 54 1011.1
20260905175308 35 315 0.0 0.0 0.00 0.00 0.00 55 1011.1
20260905174803 35 313 0.0 0.0 0.00 0.00 0.00 54 1011.1
20260905174259 36 310 0.0 0.0 0.00 0.00 0.00 51 1011.1
20260905173755 36 310 0.0 0.0 0.00 0.00 0.00 54 1011.1
20260905173251 36 322 0.0 0.0 0.00 0.00 0.00 53 1011.5
20260905172750 35 329 0.0 0.0 0.00 0.00 0.00 54 1011.4
20260905172249 35 332 0.0 0.0 0.00 0.00 0.00 54 1011.5
20260905171745 35 315 0.0 0.0 0.00 0.00 0.00 54 1011.6
20260905171242 35 311 0.0 0.0 0.00 0.00 0.00 54 1011.5
20260905170738 33 311 0.0 0.0 0.00 0.00 0.00 57 1011.7
20260905170233 33 309 0.0 0.0 0.00 0.00 0.00 59 1011.8
20260905165732 34 341 0.0 0.0 0.00 0.00 0.00 57 1011.8
20260905165228 34 324 0.0 0.0 0.00 0.00 0.00 57 1011.6
20260905164727 34 325 0.0 0.0 0.00 0.00 0.00 58 1011.8
20260905164222 35 322 0.0 0.0 0.00 0.00 0.00 58 1012.0
20260905163719 35 285 0.0 0.0 0.00 0.00 0.00 58 1011.9
20260905163215 34 289 0.0 0.0 0.00 0.00 0.00 59 1012.0
20260905162711 34 287 0.0 0.0 0.00 0.00 0.00 61 1011.9
20260905162210 34 275 0.0 0.0 0.00 0.00 0.00 60 1012.4
20260905161705 33 274 0.0 0.0 0.00 0.00 0.00 63 1012.4
20260905161203 33 304 0.0 0.0 0.00 0.00 0.00 63 1012.4
20260905160656 33 282 0.0 0.0 0.00 0.00 0.00 63 1012.5
20260905160155 33 296 0.0 0.0 0.00 0.00 0.00 63 1012.5
20260905155650 34 274 0.0 0.0 0.00 0.00 0.00 63 1012.6
20260905155149 33 278 0.0 0.0 0.00 0.00 0.00 65 1012.8
20260905154643 33 280 0.0 0.0 0.00 0.00 0.00 63 1012.6
20260905154139 33 273 0.0 0.0 0.00 0.00 0.00 65 1012.6
20260905153635 32 273 0.0 0.0 0.00 0.00 0.00 67 1012.7
20260905153130 33 267 0.0 0.0 0.00 0.00 0.00 67 1012.7
20260905152625 32 270 0.0 0.0 0.00 0.00 0.00 70 1012.5
20260905152120 32 267 0.0 0.0 0.00 0.00 0.00 73 1012.8
20260905151615 32 269 0.0 0.0 0.00 0.00 0.00 69 1012.9
20260905151110 32 267 0.0 0.0 0.00 0.00 0.00 73 1012.9
20260905150606 31 266 0.0 0.0 0.00 0.00 0.00 74 1013.0
20260905145556 30 270 0.0 0.0 0.00 0.00 0.00 74 1012.9
20260905145055 30 260 0.0 0.0 0.00 0.00 0.00 73 1012.9
20260905144551 30 261 0.0 0.0 0.00 0.00 0.00 75 1012.8
20260905144050 30 262 0.0 0.0 0.00 0.00 0.00 74 1013.0
20260905143549 30 267 0.0 0.0 0.00 0.00 0.00 78 1012.9
20260905143045 30 267 0.0 0.0 0.00 0.00 0.00 75 1012.9
20260905142543 29 267 0.0 0.0 0.00 0.00 0.00 78 1012.9
20260905142038 28 266 0.0 0.0 0.00 0.00 0.00 80 1012.9
20260905141533 27 267 0.0 0.0 0.00 0.00 0.00 84 1013.1
20260905141029 27 269 0.0 0.0 0.00 0.00 0.00 83 1012.8
20260905140524 27 277 0.0 0.0 0.00 0.00 0.00 85 1013.1
20260905140023 26 277 0.0 0.0 0.00 0.00 0.00 86 1013.0
20260905135519 26 277 0.0 0.0 0.00 0.00 0.00 87 1013.1
20260905135014 26 277 0.0 0.0 0.00 0.00 0.00 89 1013.1
20260905134514 25 278 0.0 0.0 0.00 0.00 0.00 91 1013.2
20260905134012 25 278 0.0 0.0 0.00 0.00 0.00 93 1013.3
20260905133508 25 278 0.0 0.0 0.00 0.00 0.00 95 1013.3
20260905133002 25 278 0.0 0.0 0.00 0.00 0.00 97 1013.4
20260905132457 24 278 0.0 0.0 0.00 0.00 0.00 98 1013.2
20260905131956 23 278 0.0 0.0 0.00 0.00 0.00 98 1013.1
20260905131453 23 278 0.0 0.0 0.00 0.00 0.00 99 1013.4
20260905130948 23 279 0.0 0.0 0.00 0.00 0.00 99 1013.3
20260905130442 23 279 0.0 0.0 0.00 0.00 0.00 99 1013.2
20260905125941 23 279 0.0 0.0 0.00 0.00 0.00 99 1013.4
20260905125436 22 279 0.0 0.0 0.00 0.00 0.00 99 1013.2
20260905124932 22 279 0.0 0.0 0.00 0.00 0.00 99 1013.4
20260905124428 22 279 0.0 0.0 0.00 0.00 0.00 99 1013.2
20260905123928 22 279 0.0 0.0 0.00 0.00 0.00 99 1013.3
20260905123425 22 279 0.0 0.0 0.00 0.00 0.00 99 1013.4
20260905122920 22 279 0.0 0.0 0.00 0.00 0.00 99 1013.1
20260905122419 22 279 0.0 0.0 0.00 0.00 0.00 99 1013.4
20260905121915 21 280 0.0 0.0 0.00 0.00 0.00 99 1013.2
20260905121410 21 279 0.0 0.0 0.00 0.00 0.00 99 1013.3
20260905120910 21 279 0.0 0.0 0.00 0.00 0.00 99 1013.3
20260905120410 21 279 0.0 0.0 0.00 0.00 0.00 99 1012.9
20260905115905 21 279 0.0 0.0 0.00 0.00 0.00 99 1013.1
20260905115404 21 279 0.0 0.0 0.00 0.00 0.00 99 1013.0
20260905114859 21 279 0.0 0.0 0.00 0.00 0.00 99 1012.9
20260905114358 21 279 0.0 0.0 0.00 0.00 0.00 99 1012.8
20260905113852 21 279 0.0 0.0 0.00 0.00 0.00 99 1012.9
20260905113348 21 280 0.0 0.0 0.00 0.00 0.00 99 1012.8
20260905112843 21 280 0.0 0.0 0.00 0.00 0.00 99 1012.9
20260905112337 21 279 0.0 0.0 0.00 0.00 0.00 99 1012.6